Regional Weather Roundup
Issued by NWS

Home | Current Version | Previous Version | Text Only | Print | Product List | Glossary On
Versions: 1 2 3 4 5 6 7 8 9 10 11 12 13 14 15 16 17 18 19 20 21 22 23 24 25 26 27 28 29 30 31 32 33 34 35 36 37 38 39 40 41 42 43 44 45 46 47 48 49 50
000
ASUS45 KSLC 100710
RWRUT

UTAH REGIONAL WEATHER ROUNDUP
NATIONAL WEATHER SERVICE SALT LAKE CITY UT
1200 AM MST WED FEB 10 2016

UTZ001>011-023>025-100800-

NORTHERN UTAH

CITY           SKY/WX    TMP DP  RH WIND       PRES   REMARKS
BRIGHAM CITY   PTCLDY    12   9  85 N3        30.50R
HILL AFB       PTCLDY    25  19  80 S6        30.47R WCI  18
LOGAN          FOG        4   2  91 CALM      30.50R VSB 1/4
OGDEN          PTCLDY    26  22  84 SW3       30.48R
PROVO AIRPORT  PTCLDY    18  16  93 CALM      30.48F
SALT LAKE CITY PTCLDY    28  26  92 W5        30.49R FOG     WCI  23
VERNAL         CLOUDY    13   9  84 NW3       30.50S FOG
WENDOVER       CLOUDY    30  27  86 S7        30.49S WCI  23
HEBER CITY     PTCLDY    10   9  92 E3        30.46S FOG
WEST JORDAN    CLEAR     28  25  86 CALM      30.48S

$$

UTZ012>022-026-027-100800-

SOUTHERN/CENTRAL UTAH

CITY           SKY/WX    TMP DP  RH WIND       PRES   REMARKS
BLANDING       PTCLDY    31  18  59 N7        30.48S WCI  24
BRYCE CANYON   PTCLDY    20  10  65 W13       30.49S WCI   7
CEDAR CITY     PTCLDY    22  19  89 CALM      30.44R
DELTA          CLOUDY     9   6  91 NE5       30.48S VSB 1/4 WCI   0
HANKSVILLE     MOCLDY    27  25  93 CALM      30.49S
MILFORD        MOCLDY     6   2  83 S5        30.46S FOG     WCI  -3
MOAB/CYNLANDS  MOCLDY    22  20  92 CALM      30.46S
PRICE          PTCLDY    23  17  78 E5        30.44S WCI  17
ST GEORGE      MOSUNNY   45  25  45 SE3       30.39R
KANAB          CLEAR     39  27  60 NW16      30.42S WCI  30

$$

REGIONAL REPORTS     COLORADO/ARIZONA

CITY           SKY/WX    TMP DP  RH WIND       PRES   REMARKS
CRAIG, CO      CLOUDY     0  -4  83 CALM      30.46F
GRAND JUNCTION CLOUDY    21  19  92 E6        30.46S WCI  13
RIFLE          CLOUDY    17  11  77 E8        30.49S WCI   7
MONTROSE       CLOUDY    24  16  71 S8        30.49F WCI  15
CORTEZ         CLOUDY    22  17  81 NE5       30.43R WCI  16
PAGE, AZ       CLEAR     38  27  64 CALM      30.41F
GRAND CANYON   CLEAR     33  18  53 NE8       30.43S WCI  26
KINGMAN        CLEAR     43  24  47 NE6       30.30R
FLAGSTAFF      CLEAR     25  12  58 E5        30.43F WCI  19

$$

REGIONAL REPORTS    NEVADA/IDAHO/WYOMING

CITY           SKY/WX    TMP DP  RH WIND       PRES   REMARKS
LAS VEGAS, NV  CLEAR     54  28  36 S6        30.25S
ELY            PTCLDY    16   9  74 S14       30.45F WCI   2
ELKO           CLOUDY    13  10  88 E7        30.47R WCI   3
POCATELLO, ID  CLOUDY    18  16  92 CALM      30.45F
BURLEY         CLEAR     26  24  92 NE9       30.39F WCI  17
EVANSTON, WY   CLOUDY    30  20  66 S5        30.43S WCI  25
ROCK SPRINGS   CLOUDY    31  19  61 SW13      30.39F WCI  21

$$



USA.gov is the U.S. government's official web portal to all federal, state and local government web resources and services.